EZY282 EGAA-EGKK

Flight info

Callsign EZY282
Flight time 0h 54m
Altitude 33000
Route LISBO DCT RINGA DCT BABGU DCT ETIGA DCT INKOB Q39 NOMSU UQ4 WAL L151 DISIT
Aircraft A319/M-SDE3FGHIRWY/LB1

Departure

Time 2026-05-04 12:58
Airport Belfast International Airport (EGAA)

Arrival

Time 2026-05-04 13:52
Airport London Gatwick Airport (EGKK)
Time Latitude Longitude Altitude Speed Heading
2026-05-04 11:56 54.66144 -6.21384 272 ft 0 kts 245°
2026-05-04 12:48 54.66151 -6.21360 272 ft 4 kts 239°
2026-05-04 12:48 54.66167 -6.21323 274 ft 4 kts 214°
2026-05-04 12:48 54.66188 -6.21312 274 ft 3 kts 157°
2026-05-04 12:49 54.66190 -6.21314 274 ft 0 kts 155°
2026-05-04 12:51 54.66184 -6.21309 273 ft 2 kts 155°
2026-05-04 12:52 54.66165 -6.21293 275 ft 7 kts 155°
2026-05-04 12:52 54.66113 -6.21252 272 ft 8 kts 155°
2026-05-04 12:52 54.66059 -6.21209 275 ft 9 kts 158°
2026-05-04 12:52 54.66017 -6.21265 272 ft 8 kts 244°
2026-05-04 12:53 54.65992 -6.21361 275 ft 9 kts 244°
2026-05-04 12:53 54.65938 -6.21383 272 ft 9 kts 159°
2026-05-04 12:53 54.65881 -6.21336 272 ft 9 kts 154°
2026-05-04 12:53 54.65817 -6.21346 273 ft 12 kts 220°
2026-05-04 12:54 54.65767 -6.21513 272 ft 19 kts 244°
2026-05-04 12:54 54.65699 -6.21765 274 ft 27 kts 245°
2026-05-04 12:54 54.65617 -6.22068 275 ft 28 kts 245°
2026-05-04 12:54 54.65536 -6.22371 272 ft 28 kts 245°
2026-05-04 12:55 54.65469 -6.22616 272 ft 17 kts 242°
2026-05-04 12:55 54.65367 -6.22624 272 ft 16 kts 162°
2026-05-04 12:55 54.65239 -6.22552 272 ft 24 kts 161°
2026-05-04 12:55 54.65039 -6.22440 275 ft 35 kts 162°
2026-05-04 12:56 54.64802 -6.22307 274 ft 36 kts 162°
2026-05-04 12:56 54.64568 -6.22176 272 ft 35 kts 162°
2026-05-04 12:56 54.64378 -6.22069 275 ft 26 kts 162°
2026-05-04 12:56 54.64262 -6.21997 275 ft 13 kts 148°
2026-05-04 12:57 54.64211 -6.21913 272 ft 9 kts 172°
2026-05-04 12:57 54.64212 -6.21977 272 ft 8 kts 336°
2026-05-04 12:57 54.64289 -6.22021 272 ft 24 kts 341°
2026-05-04 12:57 54.64711 -6.22258 272 ft 101 kts 342°
2026-05-04 12:58 54.65563 -6.22747 428 ft 142 kts 340°
2026-05-04 12:58 54.66484 -6.23267 1165 ft 139 kts 342°
2026-05-04 12:58 54.67423 -6.23781 1774 ft 150 kts 341°
2026-05-04 12:58 54.68528 -6.23999 2174 ft 176 kts 10°
2026-05-04 12:59 54.69568 -6.22628 2545 ft 211 kts 58°
2026-05-04 12:59 54.69795 -6.19981 3052 ft 242 kts 101°
2026-05-04 12:59 54.68925 -6.17354 3653 ft 265 kts 140°
2026-05-04 12:59 54.67305 -6.15828 4610 ft 269 kts 163°
2026-05-04 13:00 54.65505 -6.14944 5681 ft 271 kts 167°
2026-05-04 13:00 54.63673 -6.14092 6701 ft 275 kts 167°
2026-05-04 13:00 54.61798 -6.13234 7690 ft 281 kts 167°
2026-05-04 13:00 54.59888 -6.12361 8713 ft 286 kts 167°
2026-05-04 13:01 54.57952 -6.11479 9677 ft 291 kts 166°
2026-05-04 13:01 54.55969 -6.10544 10405 ft 305 kts 162°
2026-05-04 13:01 54.54038 -6.08708 10744 ft 331 kts 142°
2026-05-04 13:01 54.52351 -6.05820 11088 ft 355 kts 128°
2026-05-04 13:02 54.50977 -6.02192 11745 ft 366 kts 117°
2026-05-04 13:02 54.49956 -5.98207 12549 ft 371 kts 112°
2026-05-04 13:02 54.48942 -5.94051 13408 ft 375 kts 112°
2026-05-04 13:02 54.47927 -5.89945 14137 ft 380 kts 112°
2026-05-04 13:03 54.46888 -5.85742 14847 ft 384 kts 112°
2026-05-04 13:03 54.45843 -5.81498 15560 ft 387 kts 112°
2026-05-04 13:03 54.44790 -5.77211 16279 ft 391 kts 112°
2026-05-04 13:03 54.43728 -5.72892 17006 ft 394 kts 112°
2026-05-04 13:04 54.42653 -5.68526 17700 ft 398 kts 112°
2026-05-04 13:04 54.41568 -5.64121 18367 ft 403 kts 112°
2026-05-04 13:04 54.40475 -5.59681 18988 ft 406 kts 112°
2026-05-04 13:04 54.39159 -5.55397 19634 ft 408 kts 122°
2026-05-04 13:05 54.37545 -5.51352 20250 ft 412 kts 124°
2026-05-04 13:05 54.35911 -5.47328 20892 ft 413 kts 123°
2026-05-04 13:05 54.34258 -5.43274 21511 ft 415 kts 123°
2026-05-04 13:05 54.32596 -5.39207 22097 ft 417 kts 123°
2026-05-04 13:06 54.30925 -5.35125 22627 ft 420 kts 123°
2026-05-04 13:06 54.29240 -5.31014 23201 ft 423 kts 123°
2026-05-04 13:06 54.27534 -5.26876 23724 ft 427 kts 124°
2026-05-04 13:06 54.25741 -5.22811 24172 ft 430 kts 126°
2026-05-04 13:07 54.23854 -5.18813 24620 ft 434 kts 127°
2026-05-04 13:07 54.21903 -5.14847 25059 ft 437 kts 128°
2026-05-04 13:07 54.19930 -5.10891 25501 ft 440 kts 128°
2026-05-04 13:07 54.17941 -5.06890 25932 ft 443 kts 128°
2026-05-04 13:08 54.15979 -5.02908 26355 ft 445 kts 127°
2026-05-04 13:08 54.13989 -4.98833 26775 ft 448 kts 127°
2026-05-04 13:08 54.12000 -4.94727 27239 ft 449 kts 126°
2026-05-04 13:08 54.10010 -4.90605 27679 ft 451 kts 126°
2026-05-04 13:09 54.08006 -4.86453 28087 ft 453 kts 126°
2026-05-04 13:09 54.05999 -4.82302 28465 ft 456 kts 126°
2026-05-04 13:09 54.03999 -4.78163 28843 ft 458 kts 126°
2026-05-04 13:09 54.02021 -4.73918 29225 ft 460 kts 124°
2026-05-04 13:10 54.00077 -4.69575 29595 ft 462 kts 123°
2026-05-04 13:10 53.98185 -4.65253 30082 ft 461 kts 123°
2026-05-04 13:10 53.96277 -4.60881 30566 ft 459 kts 123°
2026-05-04 13:10 53.94348 -4.56487 31072 ft 457 kts 123°
2026-05-04 13:11 53.92464 -4.52239 31573 ft 455 kts 124°
2026-05-04 13:11 53.90549 -4.47966 32098 ft 453 kts 124°
2026-05-04 13:11 53.88643 -4.43756 32724 ft 447 kts 124°
2026-05-04 13:11 53.86753 -4.39587 33015 ft 444 kts 123°
2026-05-04 13:12 53.84934 -4.35392 33085 ft 440 kts 122°
2026-05-04 13:12 53.81475 -4.26861 33084 ft 438 kts 120°
2026-05-04 13:13 53.78080 -4.18319 33087 ft 438 kts 121°
2026-05-04 13:13 53.74647 -4.09882 33087 ft 438 kts 121°
2026-05-04 13:14 53.71151 -4.01466 33083 ft 438 kts 122°
2026-05-04 13:14 53.67647 -3.93055 33093 ft 438 kts 122°
2026-05-04 13:15 53.64158 -3.84664 33107 ft 436 kts 121°
2026-05-04 13:15 53.60682 -3.76325 33107 ft 434 kts 121°
2026-05-04 13:16 53.57210 -3.68043 33100 ft 433 kts 121°
2026-05-04 13:16 53.53739 -3.59780 33091 ft 432 kts 121°
2026-05-04 13:17 53.50267 -3.51543 33081 ft 432 kts 122°
2026-05-04 13:17 53.46886 -3.43221 33068 ft 429 kts 115°
2026-05-04 13:18 53.44477 -3.34115 33070 ft 426 kts 110°
2026-05-04 13:18 53.42154 -3.24955 33069 ft 427 kts 110°
2026-05-04 13:19 53.39488 -3.16114 33066 ft 432 kts 122°
2026-05-04 13:19 53.35232 -3.08911 33067 ft 442 kts 141°
2026-05-04 13:20 53.30140 -3.03124 33069 ft 443 kts 142°
2026-05-04 13:20 53.25037 -2.97319 33068 ft 443 kts 141°
2026-05-04 13:21 53.19936 -2.91536 33082 ft 443 kts 141°
2026-05-04 13:21 53.14836 -2.85764 33081 ft 443 kts 141°
2026-05-04 13:22 53.09770 -2.80037 33062 ft 443 kts 141°
2026-05-04 13:22 53.04662 -2.74294 33066 ft 443 kts 141°
2026-05-04 13:23 52.99561 -2.68579 33071 ft 443 kts 141°
2026-05-04 13:23 52.94449 -2.62872 33089 ft 442 kts 142°
2026-05-04 13:24 52.89336 -2.57175 33080 ft 442 kts 142°
2026-05-04 13:24 52.84221 -2.51497 33071 ft 442 kts 142°
2026-05-04 13:25 52.76547 -2.42990 33058 ft 443 kts 142°
2026-05-04 13:25 52.71425 -2.37334 33061 ft 443 kts 143°
2026-05-04 13:26 52.66294 -2.31701 33049 ft 443 kts 144°
2026-05-04 13:26 52.61162 -2.26072 33052 ft 443 kts 143°
2026-05-04 13:27 52.56057 -2.20476 33046 ft 444 kts 143°
2026-05-04 13:27 52.50910 -2.14852 33060 ft 444 kts 144°
2026-05-04 13:28 52.45755 -2.09254 33061 ft 444 kts 145°
2026-05-04 13:28 52.43170 -2.06460 32305 ft 448 kts 145°
2026-05-04 13:28 52.40538 -2.03615 31070 ft 457 kts 145°
2026-05-04 13:29 52.37871 -2.00731 29818 ft 464 kts 146°
2026-05-04 13:29 52.35162 -1.97805 28655 ft 464 kts 146°
2026-05-04 13:29 52.32456 -1.94885 27371 ft 466 kts 147°
2026-05-04 13:29 52.29764 -1.91979 25847 ft 468 kts 147°
2026-05-04 13:30 52.27053 -1.89057 25001 ft 463 kts 147°
2026-05-04 13:30 52.24388 -1.86189 24195 ft 456 kts 147°
2026-05-04 13:30 52.21755 -1.83362 23341 ft 450 kts 147°
2026-05-04 13:30 52.19163 -1.80585 22533 ft 442 kts 147°
2026-05-04 13:31 52.16646 -1.77895 21805 ft 434 kts 147°
2026-05-04 13:31 52.14133 -1.75220 21101 ft 428 kts 148°
2026-05-04 13:31 52.11650 -1.72581 20415 ft 423 kts 148°
2026-05-04 13:31 52.09215 -1.69989 20122 ft 417 kts 148°
2026-05-04 13:32 52.06802 -1.67424 19382 ft 416 kts 148°
2026-05-04 13:32 52.04395 -1.64869 19129 ft 411 kts 148°
2026-05-04 13:32 52.01999 -1.62325 18817 ft 409 kts 148°
2026-05-04 13:32 51.99627 -1.59806 18451 ft 406 kts 148°
2026-05-04 13:33 51.97266 -1.57300 18068 ft 404 kts 148°
2026-05-04 13:33 51.94916 -1.54811 17711 ft 402 kts 148°
2026-05-04 13:33 51.92579 -1.52343 17362 ft 401 kts 148°
2026-05-04 13:33 51.90246 -1.49885 17019 ft 399 kts 148°
2026-05-04 13:34 51.87920 -1.47439 16663 ft 397 kts 148°
2026-05-04 13:34 51.85605 -1.45006 16317 ft 396 kts 148°
2026-05-04 13:34 51.83296 -1.42584 15974 ft 395 kts 148°
2026-05-04 13:34 51.81025 -1.40207 15629 ft 393 kts 148°
2026-05-04 13:35 51.78708 -1.37781 15259 ft 390 kts 148°
2026-05-04 13:35 51.74196 -1.33068 14135 ft 384 kts 148°
2026-05-04 13:35 51.71956 -1.30727 13505 ft 382 kts 148°
2026-05-04 13:36 51.69760 -1.28434 12881 ft 379 kts 148°
2026-05-04 13:36 51.67558 -1.26137 12240 ft 375 kts 148°
2026-05-04 13:36 51.65373 -1.23863 11613 ft 371 kts 149°
2026-05-04 13:36 51.63213 -1.21622 10971 ft 368 kts 149°
2026-05-04 13:37 51.61071 -1.19407 10369 ft 365 kts 149°
2026-05-04 13:37 51.58940 -1.17201 9894 ft 359 kts 149°
2026-05-04 13:37 51.56895 -1.15079 9757 ft 342 kts 149°
2026-05-04 13:37 51.55600 -1.13734 9653 ft 328 kts 148°
2026-05-04 13:38 51.53188 -1.11231 9471 ft 295 kts 149°
2026-05-04 13:38 51.52042 -1.10045 9244 ft 285 kts 149°
2026-05-04 13:38 51.49866 -1.07798 9020 ft 280 kts 149°
2026-05-04 13:38 51.48222 -1.06103 9027 ft 281 kts 149°
2026-05-04 13:39 51.46573 -1.04411 9030 ft 281 kts 149°
2026-05-04 13:39 51.45460 -1.03270 9029 ft 281 kts 149°
2026-05-04 13:39 51.43815 -1.01585 9026 ft 281 kts 149°
2026-05-04 13:39 51.42166 -0.99892 9021 ft 281 kts 149°
2026-05-04 13:40 51.40513 -0.98226 9019 ft 280 kts 152°
2026-05-04 13:40 51.38808 -0.96834 8672 ft 277 kts 155°
2026-05-04 13:40 51.37051 -0.95489 8250 ft 276 kts 156°
2026-05-04 13:40 51.35344 -0.94188 8011 ft 275 kts 156°
2026-05-04 13:41 51.33620 -0.92870 7648 ft 274 kts 156°
2026-05-04 13:41 51.31904 -0.91569 7223 ft 273 kts 155°
2026-05-04 13:41 51.30179 -0.90301 7029 ft 272 kts 156°
2026-05-04 13:42 51.26727 -0.87776 6896 ft 271 kts 156°
2026-05-04 13:42 51.25027 -0.86524 6477 ft 270 kts 156°
2026-05-04 13:42 51.23317 -0.85278 6022 ft 269 kts 156°
2026-05-04 13:42 51.21616 -0.84050 5573 ft 268 kts 156°
2026-05-04 13:43 51.19916 -0.82832 5133 ft 267 kts 156°
2026-05-04 13:43 51.18377 -0.81231 5000 ft 266 kts 132°
2026-05-04 13:43 51.17456 -0.78782 4997 ft 250 kts 113°
2026-05-04 13:43 51.16827 -0.76305 4999 ft 232 kts 111°
2026-05-04 13:44 51.16262 -0.73984 5012 ft 221 kts 111°
2026-05-04 13:44 51.15712 -0.71707 5012 ft 219 kts 111°
2026-05-04 13:44 51.15166 -0.69443 5010 ft 219 kts 111°
2026-05-04 13:44 51.14623 -0.67193 4833 ft 217 kts 111°
2026-05-04 13:45 51.14082 -0.64952 4515 ft 217 kts 111°
2026-05-04 13:45 51.13538 -0.62714 4208 ft 215 kts 111°
2026-05-04 13:45 51.12999 -0.60510 4022 ft 213 kts 111°
2026-05-04 13:45 51.12459 -0.58314 3793 ft 213 kts 111°
2026-05-04 13:46 51.11920 -0.56128 3570 ft 209 kts 111°
2026-05-04 13:46 51.11399 -0.54019 3444 ft 201 kts 111°
2026-05-04 13:46 51.10893 -0.51974 3322 ft 197 kts 111°
2026-05-04 13:46 51.10586 -0.49871 3201 ft 196 kts 90°
2026-05-04 13:47 51.10800 -0.47774 3109 ft 187 kts 77°
2026-05-04 13:47 51.11072 -0.45852 3012 ft 169 kts 77°
2026-05-04 13:47 51.11316 -0.44116 2994 ft 154 kts 77°
2026-05-04 13:47 51.11544 -0.42494 2925 ft 149 kts 77°
2026-05-04 13:48 51.11768 -0.40905 2775 ft 145 kts 77°
2026-05-04 13:48 51.11986 -0.39346 2591 ft 140 kts 77°
2026-05-04 13:48 51.12193 -0.37869 2418 ft 135 kts 77°
2026-05-04 13:48 51.12397 -0.36412 2244 ft 134 kts 77°
2026-05-04 13:49 51.12595 -0.34992 2067 ft 133 kts 77°
2026-05-04 13:49 51.12795 -0.33562 1893 ft 132 kts 77°
2026-05-04 13:49 51.12994 -0.32138 1716 ft 132 kts 77°
2026-05-04 13:49 51.13192 -0.30716 1536 ft 132 kts 77°
2026-05-04 13:50 51.13393 -0.29275 1357 ft 131 kts 77°
2026-05-04 13:50 51.13588 -0.27875 1178 ft 131 kts 77°
2026-05-04 13:50 51.13777 -0.26515 1012 ft 129 kts 77°
2026-05-04 13:50 51.13971 -0.25126 817 ft 128 kts 77°
2026-05-04 13:51 51.14165 -0.23744 644 ft 128 kts 77°
2026-05-04 13:51 51.14355 -0.22366 437 ft 127 kts 77°
2026-05-04 13:51 51.14541 -0.21023 286 ft 126 kts 78°
2026-05-04 13:51 51.14719 -0.19720 209 ft 107 kts 77°
2026-05-04 13:52 51.14909 -0.18357 203 ft 40 kts 78°
2026-05-04 13:52 51.14981 -0.17967 212 ft 30 kts 60°
2026-05-04 13:52 51.15074 -0.17764 210 ft 12 kts 43°
2026-05-04 13:53 51.15149 -0.17764 205 ft 12 kts 351°
2026-05-04 13:53 51.15211 -0.17777 205 ft 0 kts 352°
2026-05-04 13:54 51.15236 -0.17785 204 ft 2 kts 345°
2026-05-04 13:55 51.15246 -0.17828 206 ft 7 kts 273°
2026-05-04 13:55 51.15224 -0.18003 208 ft 9 kts 256°
2026-05-04 13:55 51.15235 -0.18092 209 ft 8 kts 334°
2026-05-04 13:56 51.15297 -0.18113 204 ft 10 kts 348°
2026-05-04 13:56 51.15366 -0.18136 204 ft 11 kts 347°
2026-05-04 13:56 51.15541 -0.18207 210 ft 14 kts 348°
2026-05-04 13:57 51.15638 -0.18235 204 ft 14 kts
2026-05-04 13:57 51.15679 -0.18102 209 ft 15 kts 78°
2026-05-04 13:58 51.15792 -0.18055 204 ft 5 kts 14°
2026-05-04 13:58 51.15818 -0.17934 204 ft 6 kts 77°
2026-05-04 13:58 51.15818 -0.17929 207 ft 0 kts 77°
2026-05-04 14:01 51.15819 -0.17929 204 ft 0 kts 77°